View from above orbital plane
|
View from above satellite
|
Ground track
|
The orbit data is extracted from the following two-line orbital elements,
1 20855U 90081T 21055.46622542 -.00000085 00000-0 -24556-4 0 9993
2 20855 98.7057 68.2482 0023481 211.9563 319.6953 14.08688923566319
Epoch (UTC): | 24 February 2021 11:11:21 |
Eccentricity: | 0.0023481 |
inclination: | 98.7057° |
perigee height: | 847 km |
apogee height: | 881 km |
right ascension of ascending node: | 68.2482° |
argument of perigee: | 211.9563° |
revolutions per day: | 14.08688923 |
mean anomaly at epoch: | 319.6953° |
orbit number at epoch: | 56631 |
The dashed part of the orbit path shows where the satellite is in the earth's shadow,
|
|